Weather History for Dallas/Ft Worth, TX

Change the Weather History Date:

Thursday, March 27, 2014

  Actual Average Record
Temperature  
Mean Temperature 70 °F 61 °F  
Max Temperature 82 °F 72 °F 96 °F (1956)
Min Temperature 58 °F 50 °F 23 °F (1955)
Degree Days  
Heating Degree Days 0 6  
Month to date heating degree days 315 239  
Since 1 July heating degree days 2488 2171  
Cooling Degree Days 5 2  
Month to date cooling degree days 16 27  
Year to date cooling degree days 16 34  
Growing Degree Days 20 (Base 50)    
Moisture  
Dew Point 59 °F    
Average Humidity 72    
Maximum Humidity 90    
Minimum Humidity 54    
Precipitation  
Precipitation 0.02 in 0.11 in 3.89 in (1977)
Month to date precipitation 1.45 3.07  
Year to date precipitation 2.19 7.86  
Snow  
Snow 0.00 in 0.00 in 0.00 in ()
Month to date snowfall 0.1 0.2  
Since 1 July snowfall 2.9 1.2  
Snow Depth 0.00 in    
Sea Level Pressure  
Sea Level Pressure 29.76 in    
Wind  
Wind Speed 18 mph (South)    
Max Wind Speed 31 mph    
Max Gust Speed 36 mph    
Visibility 8 miles    
Events Rain    
T = Trace of Precipitation, MM = Missing Value Source: NWS Daily Summary

Daily Weather History Graph

Daily Weather History Graph

Search for Another Location

Airport:

Trip Planner

Search our weather history database for the weather conditions in past years. The results will help you decide how hot, cold, wet, or windy it might be!

Date:

Astronomy

Mar. 27, 2014 Rise Set
Actual Time 7:22 AM CDT 7:44 PM CDT
Civil Twilight 6:57 AM CDT 8:09 PM CDT
Nautical Twilight 6:28 AM CDT 8:38 PM CDT
Astronomical Twilight 5:59 AM CDT 9:07 PM CDT
Moon 5:04 AM CDT (3/27) 4:42 PM CDT (3/27)
Length of Visible Light 13h 11m
Length of Day
12h 22m
Waning Crescent, 13% of the Moon is Illuminated
Mar 27
Waning Crescent
Mar 30
New
Apr 7
First Quarter
Apr 15
Full
Apr 22
Last Quarter

Hourly Weather History & Observations

Time (CDT) Temp. Heat Index Dew Point Humidity Pressure Visibility Wind Dir Wind Speed Gust Speed Precip Events Conditions
12:30 AM 59.0 °F - 50.0 °F 72% 29.88 in 10.0 mi South 23.0 mph 32.2 mph N/A   Mostly Cloudy
12:53 AM 59.0 °F - 51.1 °F 75% 29.86 in 10.0 mi South 28.8 mph 35.7 mph N/A   Overcast
1:53 AM 59.0 °F - 51.1 °F 75% 29.84 in 10.0 mi South 21.9 mph 32.2 mph N/A   Overcast
2:53 AM 59.0 °F - 52.0 °F 78% 29.82 in 10.0 mi South 18.4 mph - N/A   Overcast
3:32 AM 59.0 °F - 54.0 °F 83% 29.81 in 6.0 mi South 19.6 mph - 0.00 in   Light Drizzle
3:53 AM 57.9 °F - 54.0 °F 87% 29.79 in 6.0 mi South 20.7 mph 28.8 mph 0.00 in   Light Drizzle
4:53 AM 59.0 °F - 55.0 °F 87% 29.77 in 7.0 mi South 17.3 mph - 0.00 in   Light Drizzle
5:53 AM 60.1 °F - 55.0 °F 83% 29.76 in 9.0 mi South 21.9 mph - 0.00 in   Light Drizzle
6:53 AM 60.1 °F - 57.0 °F 90% 29.76 in 6.0 mi South 20.7 mph 29.9 mph 0.00 in   Light Drizzle
7:48 AM 60.8 °F - 57.2 °F 88% 29.79 in 3.0 mi South 19.6 mph 25.3 mph 0.00 in   Light Drizzle
7:53 AM 61.0 °F - 57.0 °F 87% 29.77 in 3.0 mi South 16.1 mph 25.3 mph 0.00 in   Light Drizzle
8:06 AM 61.0 °F - 57.0 °F 87% 29.78 in 2.5 mi South 17.3 mph 25.3 mph 0.00 in   Light Drizzle
8:27 AM 61.0 °F - 57.9 °F 90% 29.80 in 1.8 mi South 17.3 mph - 0.00 in   Light Drizzle
8:53 AM 60.1 °F - 57.9 °F 93% 29.80 in 1.0 mi South 15.0 mph - 0.00 in   Light Drizzle
9:00 AM 60.1 °F - 59.0 °F 96% 29.81 in 0.8 mi South 16.1 mph - 0.00 in Rain Light Rain
9:31 AM 61.0 °F - 59.0 °F 93% 29.80 in 2.0 mi ESE 13.8 mph - 0.10 in Rain Light Rain
9:53 AM 63.0 °F - 60.1 °F 90% 29.78 in 2.5 mi South 18.4 mph - 0.02 in Rain Light Rain
10:07 AM 63.0 °F - 61.0 °F 93% 29.79 in 2.5 mi South 16.1 mph - 0.00 in   Overcast
10:11 AM 63.0 °F - 61.0 °F 93% 29.79 in 9.0 mi South 15.0 mph 26.5 mph 0.00 in   Overcast
10:53 AM 64.9 °F - 61.0 °F 87% 29.78 in 10.0 mi South 18.4 mph 25.3 mph 0.00 in   Overcast
11:03 AM 66.0 °F - 62.1 °F 87% 29.79 in 10.0 mi South 20.7 mph 29.9 mph N/A   Overcast
11:12 AM 66.0 °F - 62.1 °F 87% 29.79 in 10.0 mi South 23.0 mph 27.6 mph N/A   Overcast
11:21 AM 66.0 °F - 61.0 °F 84% 29.78 in 10.0 mi South 21.9 mph - N/A   Overcast
11:53 AM 68.0 °F - 62.1 °F 81% 29.76 in 10.0 mi South 23.0 mph - N/A   Overcast
12:53 PM 72.0 °F - 62.1 °F 71% 29.75 in 10.0 mi South 23.0 mph 35.7 mph N/A   Overcast
1:23 PM 73.9 °F - 63.0 °F 68% 29.76 in 10.0 mi SSW 23.0 mph 31.1 mph N/A   Mostly Cloudy
1:53 PM 75.0 °F - 62.1 °F 64% 29.74 in 10.0 mi SSW 21.9 mph - N/A   Mostly Cloudy
2:53 PM 78.1 °F - 63.0 °F 60% 29.69 in 10.0 mi South 21.9 mph 27.6 mph N/A   Mostly Cloudy
3:53 PM 79.0 °F - 63.0 °F 58% 29.66 in 10.0 mi South 20.7 mph 27.6 mph N/A   Mostly Cloudy
4:53 PM 81.0 °F 82.2 °F 63.0 °F 54% 29.64 in 10.0 mi South 21.9 mph 31.1 mph N/A   Mostly Cloudy
5:53 PM 80.1 °F 81.5 °F 63.0 °F 56% 29.63 in 10.0 mi South 18.4 mph 25.3 mph N/A   Mostly Cloudy
6:53 PM 79.0 °F - 63.0 °F 58% 29.63 in 10.0 mi South 20.7 mph 27.6 mph N/A   Scattered Clouds
7:53 PM 75.9 °F - 63.0 °F 64% 29.66 in 10.0 mi South 12.7 mph - N/A   Scattered Clouds
8:53 PM 73.0 °F - 64.0 °F 73% 29.68 in 10.0 mi South 12.7 mph - N/A   Scattered Clouds
9:53 PM 72.0 °F - 64.9 °F 78% 29.71 in 10.0 mi South 10.4 mph 21.9 mph N/A   Partly Cloudy
10:53 PM 71.1 °F - 64.9 °F 81% 29.72 in 10.0 mi South 12.7 mph - N/A   Partly Cloudy
11:53 PM 70.0 °F - 64.9 °F 84% 29.73 in 10.0 mi South 12.7 mph - N/A   Partly Cloudy